Current Version              Previous Version:    01  02  03  04  05  06  07  08  09  10  11  12  13  14  15  16  17  18  19  20  21  22  23  24  25  26  27  28  29  30  
   31  32  33  34  35  36  37  38  39  40  41  42  43  44  45  46  47  48  49  50  51  52  53  54  55  56  57  58  59  60  

[Printable]
202
ASUS44 KLUB 202101
RWRTX
WEST TEXAS WEATHER ROUNDUP
NATIONAL WEATHER SERVICE LUBBOCK TX
400 PM CDT SAT SEP 20 2014

NOTE: "FAIR" INDICATES FEW OR NO CLOUDS BELOW 12,000 FEET WITH NO
SIGNIFICANT WEATHER AND/OR OBSTRUCTIONS TO VISIBILITY.

TXZ004-006>008-010-012-014-016-OKZ002-202200-
TEXAS PANHANDLE/OKLAHOMA PANHANDLE

CITY           SKY/WX    TMP DP  RH WIND       PRES   REMARKS
AMARILLO       MOSUNNY   81  63  54 E6        30.08F
BORGER         MOSUNNY   85  62  46 S10       30.04F
CANADIAN       PTSUNNY   88  65  46 S9        29.99F
DALHART        MOSUNNY   83  60  45 MISG      30.10F
DUMAS          MOSUNNY   83  63  50 S7        30.08F
GUYMON         SUNNY     88  62  41 S6        30.01F
HEREFORD       SUNNY     82  67  61 E8        30.09F
PAMPA          PTSUNNY   83  61  46 S6        30.06F
PERRYTON       MOSUNNY   88  60  39 S9        30.02F
$$

TXZ026-029-035-045-048-202200-
SOUTHERN PANHANDLE/SOUTH PLAINS/ROLLING PLAINS

CITY           SKY/WX    TMP DP  RH WIND       PRES   REMARKS
CHILDRESS      CLOUDY    87  69  54 CALM      30.00F
SEMINOLE       PTSUNNY   80  66  64 NE6       30.02F
LUBBOCK        PTSUNNY   76  67  73 E12       30.04F
PLAINVIEW      CLOUDY    75  67  75 E5        30.05F
SNYDER         CLOUDY    75  70  85 SE7       30.01F
$$

TXZ052-054-060>062-072-078-127-140-154-169-202200-
PERMIAN BASIN/CONCHO VALLEY/BIG COUNTRY/EDWARDS PLATEAU

CITY           SKY/WX    TMP DP  RH WIND       PRES   REMARKS
ABILENE        CLOUDY    84  69  60 S6        29.98F
BIG SPRING     PTSUNNY   82  69  65 E7        30.00F
BRADY          SUNNY     82  68  61 E6        29.97F
JUNCTION       PTSUNNY   85  67  54 E10       29.94F
MIDLAND        PTSUNNY   81  70  69 VRB3      29.98F
ODESSA         PTSUNNY   80  69  69 SE7       30.00F
SAN ANGELO     PTSUNNY   85  71  63 E13       29.95F
SONORA         MOSUNNY   81  68  65 E13G20    30.00F
SWEETWATER     CLOUDY    79  70  73 SE5       30.03F
WINK           MOSUNNY   83  71  67 E10       29.97F
$$

TXZ055-058-074-075-080-082-202200-
FAR WEST/SOUTHWEST MOUNTAINS/TRANS PECOS

CITY           SKY/WX    TMP DP  RH WIND       PRES   REMARKS
ALPINE         CLOUDY    67  64  93 SW5       30.15F
DRYDEN           N/A     90  69  50 NE10      29.92F
EL PASO        MOSUNNY   87  60  40 NE7       30.01F
FORT STOCKTON  MOSUNNY   85  67  54 NW7       29.98F
GUADALUPE PASS MOSUNNY   73  63  70 E20         N/A
MARFA          PTSUNNY   72  66  83 E10       30.12S
PRESIDIO       FAIR      93  62  35 MISG      29.92F
$$

TXZ014-016-019-021>030-083-202200
TEXAS TECH WEST TEXAS MESONET/TEXAS PANHANDLE/NORTHERN SOUTH PLAINS

CITY           SKY/WX    TMP DP  RH WIND       PRES   REMARKS
ABERNATHY 5ENE   N/A     74  67  76 E7        30.07F
AMARILLO 9NNE    N/A     83  63  49 SE5       30.06F
AMARILLO 7SSE    N/A     81  65  59 SW5       30.10F
AMHERST 1NE      N/A     74  67  79 SE7       30.07F
BOOTLEG 11WNW    N/A     76  64  66 SE7       30.14F
CANADIAN 6E      N/A     85  65  51 S13       29.99F
CAPROCK CYN SP   N/A     80  69  67 S7        30.04F
CHILDRESS 2NNE   N/A     84  68  58 SE2       29.99F
CLARENDON 2WSW   N/A     82  64  54 S6        30.04S
CLAUDE 12SW      N/A     80  66  62 SE2       30.08F
DIMMITT 2NE      N/A     75  67  75 E9        30.09F
FLOYDADA 2NNE    N/A     77  68  73 SE8       30.05F
FRIONA 2NE       N/A     76  66  70 E6        30.11F
GOODLETT 3W      N/A     85  66  53 SE6       29.97F
HART 3N          N/A     76  67  75 E9        30.08F
HEREFORD 2NW     N/A     80  63  56 SE7       30.09F
MCLEAN 1E        N/A     85  64  48 S8        30.03F
MEMPHIS 1NE      N/A     85  67  56 S6        30.00F
MULESHOE 2SSW    N/A     76  67  71 NE3       30.07F
OLTON 6S         N/A     74  66  75 E8        30.07F
PALO DURO SP     N/A     82  64  55 SE6       30.09F
PAMPA 2E         N/A     82  64  53 S7        30.05F
PLAINVIEW 1S     N/A     75  68  77 E5        30.06F
SILVERTON 7ESE   N/A     80  67  63 S7        30.06S
TULIA 2ENE       N/A     78  66  66 SE6       30.07F
TURKEY 2WSW      N/A     83  69  63 SE8       30.02F
UMBARGER 3NNE    N/A     80  65  62 E8        30.10F
$$

TXZ033>036-039>041-045>048-202200
TEXAS TECH WEST TEXAS MESONET/SOUTH PLAINS

CITY           SKY/WX    TMP DP  RH WIND       PRES   REMARKS
AIKEN 3WSW       N/A     76  68  75 SE6       30.07F
ANDREWS 2NE      N/A     79  67  64 E3        30.01S
ANTON 6SSW       N/A     75  68  79 SE8       30.05F
BROWNFIELD 2S    N/A     75  69  80 E6        30.02F
DENVR CTY 7WNW   N/A     79  64  60 N5        30.03F
GAIL 2ESE        N/A     71  70  96 E7        30.00S
LAMESA 2SE       N/A     78  70  76 S5        30.01S
LEVELLAND 4S     N/A     74  67  78 E8        30.05F
LUBBOCK 3WNW     N/A     77  66  68 E5        30.05S
MORTON 1ENE      N/A     75  67  76 E5        30.07F
ODONNELL 1N      N/A     69  67  94 E5        30.03S
PLAINS 3N        N/A     77  66  67 N6        30.05F
RALLS 1SE        N/A     75  70  83 E7        30.06S
REESE CENTER     N/A     76  67  74 SE6       30.05F
SEAGRAVES 1SW    N/A     78  69  72 N6        30.01F
SEMINOLE 2NNE    N/A     78  66  66 N2        30.01F
SLATON 2NE       N/A     74  68  81 E7        30.04F
SNYDER 3E        N/A     74  70  87 SE6       30.01F
SUNDOWN 8SW      N/A     75  67  75 NE3       30.05F
TAHOKA 3NNE      N/A     75  68  79 SE6       30.03S
WOLFFORTH 6SSW   N/A     75  69  82 E8        30.05S
$$

TXZ031-032-036>038-042>044-202200-
TEXAS TECH WEST TEXAS MESONET/ROLLING PLAINS

CITY           SKY/WX    TMP DP  RH WIND       PRES   REMARKS
ASPERMONT 3NE    N/A     79  71  76 E7        29.99F
GUTHRIE 10WSW    N/A     78  71  79 E7        29.99F
HASKELL 1NW      N/A     82  69  63 SE5       29.98F
JAYTON 1SSE      N/A     80  69  69 S3        29.99F
KNOX CITY 3NW    N/A     82  70  66 SW6       29.98F
LK A HENRY 1NW   N/A     79  72  79 SE5       30.00F
NORTHFIELD 1S    N/A     82  70  67 S6        30.00F
ODELL 4ENE       N/A     81  73  76 S13       29.99S
PADUCAH 10SW     N/A     80  70  71 E6        30.00F
POST 1NE         N/A     74  72  92 SE6       30.02F
RRING SPRGS 3N   N/A     79  70  74 SE6       30.03F
SEYMOUR 3NW    LGT RAIN  78  69  75 NW9       29.97F
SPUR 1W          N/A     78  69  72 SE5       30.00F
WEINERT 2NNE     N/A     83  70  64 SE3       29.98F
WHITE RVR 6NE    N/A     76  70  82 SE6       30.03F
$$

TXZ052-054-060>062-072-078-127-140-154-169-202200-
TEXAS TECH WEST TEXAS MESONET/PERMIAN BASIN/
CONCHO VALLEY/BIG COUNTRY/EDWARDS PLATEAU

CITY           SKY/WX    TMP DP  RH WIND       PRES   REMARKS
COYANOSA 2N      N/A     84  68  58 N5        29.96F
JUNCTION 1SSW    N/A     86  68  55 E7        29.95F
MERTZON 3NNE     N/A     82  71  69 E6        29.98S
SAN ANGELO 7NW   N/A     84  68  58 E7        29.97S
STRLNG CT 4WSW   N/A     80  71  74 E9        29.99F
ST LAWRNCE 5SW   N/A     79  70  73 SE10      29.99S
SWEETWATR 11SW   N/A     77  71  82 E9        30.02F
WALL 1E          N/A     81  71  71 E7        29.97F
$$

TXZ055-058-074-075-080-082-202200-
TEXAS TECH WEST TEXAS MESONET/FAR WEST/SOUTHWEST MOUNTAINS/TRANS PECOS

CITY           SKY/WX    TMP DP  RH WIND       PRES   REMARKS
PRSMN GAP BBNP   N/A     89  67  48 N8        29.94S
GUADLPE MTN NP   N/A     71  62  75 E7        30.17S
$$